contact:dominique.lefevre@mio.osupytheas.fr, maurice.libes@osupytheas.fr, didier.mallarino@osupytheas.fr
Project:EMSO http://www.emso-fr.org/EMSO-France
Depth: 2436.0 m
Title:EMSO Ligure Ouest : Data MII capteur MICROCAT
DateTime_Computer,Latitude,Longitude,Temperature,Conductivity,Pressure,DateTime_Instrument
DateTime_Computer,Latitude,Longitude,degC,S m-1,dbar,DateTime_Instrument
2019-10-31T00:01:50Z,42.805,6.029,13.2981,4.59996,2469.96,2019-10-31T02:02:17Z
2019-10-31T00:04:54Z,42.805,6.029,13.2990,4.60029,2469.993,2019-10-31T02:05:20Z
2019-10-31T00:07:57Z,42.805,6.029,13.2974,4.60011,2469.923,2019-10-31T02:08:23Z
2019-10-31T00:11:00Z,42.805,6.029,13.2996,4.60008,2469.937,2019-10-31T02:11:27Z
2019-10-31T00:14:03Z,42.805,6.029,13.2979,4.60009,2469.96,2019-10-31T02:14:30Z
2019-10-31T00:17:06Z,42.805,6.029,13.2982,4.60019,2469.937,2019-10-31T02:17:33Z
2019-10-31T00:20:10Z,42.805,6.029,13.2978,4.60021,2469.937,2019-10-31T02:20:36Z
2019-10-31T00:23:13Z,42.805,6.029,13.2987,4.60021,2469.923,2019-10-31T02:23:40Z
2019-10-31T00:26:16Z,42.805,6.029,13.2980,4.60015,2469.96,2019-10-31T02:26:43Z
2019-10-31T00:29:19Z,42.805,6.029,13.2990,4.60005,2469.96,2019-10-31T02:29:46Z
2019-10-31T00:32:23Z,42.805,6.029,13.2970,4.59987,2469.947,2019-10-31T02:32:49Z
2019-10-31T00:35:26Z,42.805,6.029,13.2971,4.60014,2469.947,2019-10-31T02:35:52Z
2019-10-31T00:38:29Z,42.805,6.029,13.2981,4.60013,2469.937,2019-10-31T02:38:56Z
2019-10-31T00:41:32Z,42.805,6.029,13.2991,4.60012,2469.9,2019-10-31T02:41:59Z
2019-10-31T00:44:35Z,42.805,6.029,13.2992,4.60021,2469.923,2019-10-31T02:45:02Z
2019-10-31T00:47:38Z,42.805,6.029,13.2971,4.59998,2469.9,2019-10-31T02:48:05Z
2019-10-31T00:50:42Z,42.805,6.029,13.2972,4.60020,2469.947,2019-10-31T02:51:08Z
2019-10-31T00:53:45Z,42.805,6.029,13.2974,4.60026,2469.9,2019-10-31T02:54:11Z
2019-10-31T00:56:48Z,42.805,6.029,13.2984,4.59996,2469.923,2019-10-31T02:57:15Z
2019-10-31T00:59:51Z,42.805,6.029,13.2989,4.60010,2469.923,2019-10-31T03:00:18Z
2019-10-31T01:02:54Z,42.805,6.029,13.2980,4.60006,2469.923,2019-10-31T03:03:21Z
2019-10-31T01:05:58Z,42.805,6.029,13.2965,4.60004,2469.914,2019-10-31T03:06:24Z
2019-10-31T01:09:01Z,42.805,6.029,13.2972,4.60002,2469.923,2019-10-31T03:09:27Z
2019-10-31T01:12:04Z,42.805,6.029,13.2967,4.59996,2469.937,2019-10-31T03:12:31Z
2019-10-31T01:15:07Z,42.805,6.029,13.2964,4.59981,2469.914,2019-10-31T03:15:34Z
2019-10-31T01:18:10Z,42.805,6.029,13.2973,4.59989,2469.923,2019-10-31T03:18:37Z
2019-10-31T01:21:14Z,42.805,6.029,13.2974,4.59981,2469.867,2019-10-31T03:21:40Z
2019-10-31T01:24:17Z,42.805,6.029,13.2972,4.59983,2469.937,2019-10-31T03:24:43Z
2019-10-31T01:27:20Z,42.805,6.029,13.2971,4.60004,2469.914,2019-10-31T03:27:47Z
2019-10-31T01:30:23Z,42.805,6.029,13.2970,4.59993,2469.914,2019-10-31T03:30:50Z
2019-10-31T01:33:27Z,42.805,6.029,13.2969,4.59978,2469.923,2019-10-31T03:33:53Z
2019-10-31T01:36:30Z,42.805,6.029,13.2971,4.59981,2469.876,2019-10-31T03:36:56Z
2019-10-31T01:39:33Z,42.805,6.029,13.2967,4.60009,2469.89,2019-10-31T03:40:00Z
2019-10-31T01:42:36Z,42.805,6.029,13.2964,4.60005,2469.9,2019-10-31T03:43:03Z
2019-10-31T01:45:39Z,42.805,6.029,13.2976,4.59996,2469.876,2019-10-31T03:46:06Z
2019-10-31T01:48:43Z,42.805,6.029,13.2968,4.59994,2469.89,2019-10-31T03:49:09Z
2019-10-31T01:51:46Z,42.805,6.029,13.2996,4.60018,2469.89,2019-10-31T03:52:12Z
2019-10-31T01:54:49Z,42.805,6.029,13.2973,4.60002,2469.89,2019-10-31T03:55:15Z
2019-10-31T01:57:52Z,42.805,6.029,13.2975,4.60019,2469.89,2019-10-31T03:58:19Z
2019-10-31T02:00:55Z,42.805,6.029,13.2988,4.60033,2469.9,2019-10-31T04:01:22Z
2019-10-31T02:03:58Z,42.805,6.029,13.2981,4.60001,2469.853,2019-10-31T04:04:25Z
2019-10-31T02:07:02Z,42.805,6.029,13.2967,4.59999,2469.876,2019-10-31T04:07:28Z
2019-10-31T02:10:05Z,42.805,6.029,13.2964,4.59994,2469.876,2019-10-31T04:10:31Z
2019-10-31T02:13:08Z,42.805,6.029,13.2966,4.59991,2469.853,2019-10-31T04:13:35Z
2019-10-31T02:16:11Z,42.805,6.029,13.2972,4.60024,2469.876,2019-10-31T04:16:38Z
2019-10-31T02:19:14Z,42.805,6.029,13.2976,4.59999,2469.876,2019-10-31T04:19:41Z
2019-10-31T02:22:18Z,42.805,6.029,13.3000,4.60004,2469.914,2019-10-31T04:22:44Z
2019-10-31T02:25:21Z,42.805,6.029,13.2985,4.60017,2469.853,2019-10-31T04:25:47Z
2019-10-31T02:28:24Z,42.805,6.029,13.2970,4.59991,2469.9,2019-10-31T04:28:51Z
2019-10-31T02:31:27Z,42.805,6.029,13.2973,4.59999,2469.853,2019-10-31T04:31:54Z
2019-10-31T02:34:30Z,42.805,6.029,13.2972,4.60001,2469.853,2019-10-31T04:34:57Z
2019-10-31T02:37:34Z,42.805,6.029,13.2981,4.60011,2469.853,2019-10-31T04:38:00Z
2019-10-31T02:40:37Z,42.805,6.029,13.2980,4.60022,2469.914,2019-10-31T04:41:04Z
2019-10-31T02:43:40Z,42.805,6.029,13.2982,4.60040,2469.853,2019-10-31T04:44:07Z
2019-10-31T02:46:43Z,42.805,6.029,13.2983,4.60019,2469.853,2019-10-31T04:47:10Z
2019-10-31T02:49:47Z,42.805,6.029,13.2971,4.60016,2469.867,2019-10-31T04:50:13Z
2019-10-31T02:52:50Z,42.805,6.029,13.2986,4.60008,2469.89,2019-10-31T04:53:16Z
2019-10-31T02:55:53Z,42.805,6.029,13.2973,4.60009,2469.853,2019-10-31T04:56:20Z
2019-10-31T02:58:56Z,42.805,6.029,13.2968,4.60017,2469.876,2019-10-31T04:59:23Z
2019-10-31T03:01:59Z,42.805,6.029,13.2970,4.60069,2469.914,2019-10-31T05:02:26Z
2019-10-31T03:05:03Z,42.805,6.029,13.2981,4.60006,2469.853,2019-10-31T05:05:29Z
2019-10-31T03:08:06Z,42.805,6.029,13.2972,4.60017,2469.876,2019-10-31T05:08:33Z
2019-10-31T03:11:09Z,42.805,6.029,13.2979,4.60006,2469.876,2019-10-31T05:11:36Z
2019-10-31T03:14:12Z,42.805,6.029,13.2968,4.59999,2469.853,2019-10-31T05:14:39Z
2019-10-31T03:17:16Z,42.805,6.029,13.2964,4.60023,2469.89,2019-10-31T05:17:42Z
2019-10-31T03:20:19Z,42.805,6.029,13.2967,4.60010,2469.867,2019-10-31T05:20:45Z
2019-10-31T03:23:22Z,42.805,6.029,13.2969,4.60004,2469.89,2019-10-31T05:23:49Z
2019-10-31T03:26:25Z,42.805,6.029,13.2970,4.60004,2469.83,2019-10-31T05:26:52Z
2019-10-31T03:29:29Z,42.805,6.029,13.2967,4.60003,2469.853,2019-10-31T05:29:55Z
2019-10-31T03:32:32Z,42.805,6.029,13.2979,4.60009,2469.853,2019-10-31T05:32:59Z
2019-10-31T03:35:35Z,42.805,6.029,13.2976,4.60010,2469.853,2019-10-31T05:36:02Z
2019-10-31T03:38:39Z,42.805,6.029,13.2970,4.60026,2469.853,2019-10-31T05:39:05Z
2019-10-31T03:41:42Z,42.805,6.029,13.2964,4.60019,2469.867,2019-10-31T05:42:08Z
2019-10-31T03:44:45Z,42.805,6.029,13.2969,4.60009,2469.914,2019-10-31T05:45:12Z
2019-10-31T03:47:48Z,42.805,6.029,13.2965,4.59991,2469.914,2019-10-31T05:48:15Z
2019-10-31T03:50:51Z,42.805,6.029,13.2970,4.60031,2469.89,2019-10-31T05:51:18Z
2019-10-31T03:53:55Z,42.805,6.029,13.2974,4.60044,2469.876,2019-10-31T05:54:21Z
2019-10-31T03:56:58Z,42.805,6.029,13.2994,4.60038,2469.89,2019-10-31T05:57:24Z
2019-10-31T04:00:01Z,42.805,6.029,13.2974,4.60028,2469.853,2019-10-31T06:00:27Z
2019-10-31T04:03:04Z,42.805,6.029,13.2976,4.60040,2469.9,2019-10-31T06:03:31Z
2019-10-31T04:06:07Z,42.805,6.029,13.2980,4.60043,2469.853,2019-10-31T06:06:34Z
2019-10-31T04:09:11Z,42.805,6.029,13.2966,4.60003,2469.876,2019-10-31T06:09:37Z
2019-10-31T04:12:14Z,42.805,6.029,13.2965,4.60005,2469.853,2019-10-31T06:12:40Z
2019-10-31T04:15:17Z,42.805,6.029,13.2975,4.60032,2469.876,2019-10-31T06:15:44Z
2019-10-31T04:18:20Z,42.805,6.029,13.2978,4.60038,2469.853,2019-10-31T06:18:47Z
2019-10-31T04:21:23Z,42.805,6.029,13.2971,4.60040,2469.89,2019-10-31T06:21:50Z
2019-10-31T04:24:27Z,42.805,6.029,13.2974,4.60020,2469.9,2019-10-31T06:24:53Z
2019-10-31T04:27:30Z,42.805,6.029,13.2969,4.60022,2469.89,2019-10-31T06:27:56Z
2019-10-31T04:30:33Z,42.805,6.029,13.2968,4.60021,2469.89,2019-10-31T06:31:00Z
2019-10-31T04:33:36Z,42.805,6.029,13.2970,4.60010,2469.89,2019-10-31T06:34:03Z
2019-10-31T04:36:39Z,42.805,6.029,13.2968,4.60025,2469.89,2019-10-31T06:37:06Z
2019-10-31T04:39:43Z,42.805,6.029,13.2976,4.60044,2469.867,2019-10-31T06:40:09Z
2019-10-31T04:42:46Z,42.805,6.029,13.2975,4.60049,2469.89,2019-10-31T06:43:12Z
2019-10-31T04:45:49Z,42.805,6.029,13.2976,4.60072,2469.89,2019-10-31T06:46:16Z
2019-10-31T04:48:52Z,42.805,6.029,13.2983,4.60023,2469.9,2019-10-31T06:49:19Z
2019-10-31T04:51:55Z,42.805,6.029,13.2975,4.60039,2469.89,2019-10-31T06:52:22Z
2019-10-31T04:54:59Z,42.805,6.029,13.2983,4.60024,2469.914,2019-10-31T06:55:25Z
2019-10-31T04:58:02Z,42.805,6.029,13.2978,4.60032,2469.867,2019-10-31T06:58:28Z
2019-10-31T05:01:05Z,42.805,6.029,13.2974,4.60036,2469.89,2019-10-31T07:01:32Z
2019-10-31T05:04:08Z,42.805,6.029,13.2982,4.60042,2469.9,2019-10-31T07:04:35Z
2019-10-31T05:07:11Z,42.805,6.029,13.2978,4.60028,2469.9,2019-10-31T07:07:38Z
2019-10-31T05:10:15Z,42.805,6.029,13.2984,4.60023,2469.886,2019-10-31T07:10:41Z
2019-10-31T05:13:18Z,42.805,6.029,13.2984,4.60023,2469.9,2019-10-31T07:13:44Z
2019-10-31T05:16:21Z,42.805,6.029,13.2975,4.60021,2469.89,2019-10-31T07:16:47Z
2019-10-31T05:19:24Z,42.805,6.029,13.2972,4.60014,2469.89,2019-10-31T07:19:51Z
2019-10-31T05:22:27Z,42.805,6.029,13.2980,4.60025,2469.937,2019-10-31T07:22:54Z
2019-10-31T05:25:31Z,42.805,6.029,13.2968,4.60002,2469.876,2019-10-31T07:25:57Z
2019-10-31T05:28:34Z,42.805,6.029,13.2976,4.60008,2469.923,2019-10-31T07:29:00Z
2019-10-31T05:31:37Z,42.805,6.029,13.2981,4.60006,2469.937,2019-10-31T07:32:04Z
2019-10-31T05:34:40Z,42.805,6.029,13.2976,4.60001,2469.947,2019-10-31T07:35:07Z
2019-10-31T05:37:43Z,42.805,6.029,13.2968,4.60021,2469.947,2019-10-31T07:38:10Z
2019-10-31T05:40:47Z,42.805,6.029,13.2965,4.60008,2469.937,2019-10-31T07:41:13Z
2019-10-31T05:43:50Z,42.805,6.029,13.2975,4.60009,2469.947,2019-10-31T07:44:16Z
2019-10-31T05:46:53Z,42.805,6.029,13.2979,4.60026,2469.947,2019-10-31T07:47:20Z
2019-10-31T05:49:56Z,42.805,6.029,13.2975,4.59999,2469.97,2019-10-31T07:50:23Z
2019-10-31T05:52:59Z,42.805,6.029,13.2970,4.60001,2469.984,2019-10-31T07:53:26Z
2019-10-31T05:56:03Z,42.805,6.029,13.2976,4.59992,2469.96,2019-10-31T07:56:29Z
2019-10-31T05:59:06Z,42.805,6.029,13.2970,4.59996,2469.984,2019-10-31T07:59:33Z
2019-10-31T06:02:09Z,42.805,6.029,13.2973,4.59997,2469.96,2019-10-31T08:02:36Z
2019-10-31T06:05:13Z,42.805,6.029,13.2971,4.60009,2469.984,2019-10-31T08:05:39Z
2019-10-31T06:08:16Z,42.805,6.029,13.2970,4.60005,2469.947,2019-10-31T08:08:42Z
2019-10-31T06:11:19Z,42.805,6.029,13.2976,4.59999,2469.96,2019-10-31T08:11:46Z
2019-10-31T06:14:22Z,42.805,6.029,13.2971,4.60004,2469.937,2019-10-31T08:14:49Z
2019-10-31T06:17:25Z,42.805,6.029,13.2977,4.60009,2469.97,2019-10-31T08:17:52Z
2019-10-31T06:20:29Z,42.805,6.029,13.2980,4.60001,2469.97,2019-10-31T08:20:55Z
2019-10-31T06:23:32Z,42.805,6.029,13.2975,4.59997,2469.993,2019-10-31T08:23:58Z
2019-10-31T06:26:35Z,42.805,6.029,13.2974,4.59999,2470.007,2019-10-31T08:27:02Z
2019-10-31T06:29:38Z,42.805,6.029,13.2982,4.60003,2470.017,2019-10-31T08:30:05Z
2019-10-31T06:32:41Z,42.805,6.029,13.2969,4.60003,2470.007,2019-10-31T08:33:08Z
2019-10-31T06:35:45Z,42.805,6.029,13.2984,4.60018,2469.993,2019-10-31T08:36:11Z
2019-10-31T06:38:48Z,42.805,6.029,13.2974,4.60005,2469.97,2019-10-31T08:39:14Z
2019-10-31T06:41:51Z,42.805,6.029,13.2969,4.60039,2470.007,2019-10-31T08:42:18Z
2019-10-31T06:44:54Z,42.805,6.029,13.2968,4.60000,2470.007,2019-10-31T08:45:21Z
2019-10-31T06:47:57Z,42.805,6.029,13.2972,4.60002,2470.017,2019-10-31T08:48:24Z
2019-10-31T06:51:00Z,42.805,6.029,13.2967,4.59996,2470.053,2019-10-31T08:51:27Z
2019-10-31T06:54:04Z,42.805,6.029,13.2968,4.59993,2470.04,2019-10-31T08:54:30Z
2019-10-31T06:57:07Z,42.805,6.029,13.2964,4.60001,2470.03,2019-10-31T08:57:34Z
2019-10-31T07:00:10Z,42.805,6.029,13.2974,4.59993,2470.03,2019-10-31T09:00:37Z
2019-10-31T07:03:13Z,42.805,6.029,13.2971,4.59986,2470.04,2019-10-31T09:03:40Z
2019-10-31T07:06:17Z,42.805,6.029,13.2973,4.59998,2470.04,2019-10-31T09:06:43Z
2019-10-31T07:09:20Z,42.805,6.029,13.2975,4.60017,2470.03,2019-10-31T09:09:46Z
2019-10-31T07:12:23Z,42.805,6.029,13.2966,4.60029,2470.017,2019-10-31T09:12:50Z
2019-10-31T07:15:26Z,42.805,6.029,13.2976,4.60006,2470.03,2019-10-31T09:15:53Z
2019-10-31T07:18:29Z,42.805,6.029,13.2976,4.60017,2470.063,2019-10-31T09:18:56Z
2019-10-31T07:21:33Z,42.805,6.029,13.2974,4.60001,2470.04,2019-10-31T09:21:59Z
2019-10-31T07:24:36Z,42.805,6.029,13.2967,4.59992,2470.04,2019-10-31T09:25:02Z
2019-10-31T07:27:39Z,42.805,6.029,13.2981,4.60011,2470.04,2019-10-31T09:28:06Z
2019-10-31T07:30:42Z,42.805,6.029,13.2982,4.60014,2470.1,2019-10-31T09:31:09Z
2019-10-31T07:33:45Z,42.805,6.029,13.2971,4.60001,2470.063,2019-10-31T09:34:12Z
2019-10-31T07:36:49Z,42.805,6.029,13.2974,4.60001,2470.077,2019-10-31T09:37:15Z
2019-10-31T07:39:52Z,42.805,6.029,13.2979,4.60004,2470.026,2019-10-31T09:40:18Z
2019-10-31T07:42:55Z,42.805,6.029,13.2968,4.59995,2470.077,2019-10-31T09:43:22Z
2019-10-31T07:45:58Z,42.805,6.029,13.2969,4.59991,2470.063,2019-10-31T09:46:25Z
2019-10-31T07:49:01Z,42.805,6.029,13.2979,4.59996,2470.1,2019-10-31T09:49:28Z
2019-10-31T07:52:05Z,42.805,6.029,13.2976,4.60003,2470.087,2019-10-31T09:52:31Z
2019-10-31T07:55:08Z,42.805,6.029,13.2965,4.59990,2470.1,2019-10-31T09:55:34Z
2019-10-31T07:58:11Z,42.805,6.029,13.2971,4.59989,2470.063,2019-10-31T09:58:38Z
2019-10-31T08:01:14Z,42.805,6.029,13.2969,4.59991,2470.1,2019-10-31T10:01:41Z
2019-10-31T08:04:17Z,42.805,6.029,13.2973,4.60003,2470.063,2019-10-31T10:04:44Z
2019-10-31T08:07:21Z,42.805,6.029,13.2969,4.59985,2470.087,2019-10-31T10:07:47Z
2019-10-31T08:10:24Z,42.805,6.029,13.2968,4.59976,2470.087,2019-10-31T10:10:50Z
2019-10-31T08:13:27Z,42.805,6.029,13.2968,4.59984,2470.11,2019-10-31T10:13:54Z
2019-10-31T08:16:30Z,42.805,6.029,13.2964,4.59980,2470.1,2019-10-31T10:16:57Z
2019-10-31T08:19:34Z,42.805,6.029,13.2968,4.59985,2470.077,2019-10-31T10:20:00Z
2019-10-31T08:22:37Z,42.805,6.029,13.2971,4.59986,2470.1,2019-10-31T10:23:03Z
2019-10-31T08:25:40Z,42.805,6.029,13.2972,4.59991,2470.087,2019-10-31T10:26:07Z
2019-10-31T08:28:43Z,42.805,6.029,13.2968,4.59988,2470.1,2019-10-31T10:29:10Z
2019-10-31T08:31:46Z,42.805,6.029,13.2968,4.59983,2470.11,2019-10-31T10:32:13Z
2019-10-31T08:34:50Z,42.805,6.029,13.2967,4.59984,2470.087,2019-10-31T10:35:16Z
2019-10-31T08:37:53Z,42.805,6.029,13.2969,4.59990,2470.077,2019-10-31T10:38:19Z
2019-10-31T08:40:56Z,42.805,6.029,13.2964,4.59983,2470.1,2019-10-31T10:41:23Z
2019-10-31T08:43:59Z,42.805,6.029,13.2971,4.59981,2470.124,2019-10-31T10:44:26Z
2019-10-31T08:47:03Z,42.805,6.029,13.2967,4.59996,2470.049,2019-10-31T10:47:29Z
2019-10-31T08:50:06Z,42.805,6.029,13.2959,4.59979,2470.087,2019-10-31T10:50:32Z
2019-10-31T08:53:09Z,42.805,6.029,13.2971,4.59983,2470.1,2019-10-31T10:53:35Z
2019-10-31T08:56:12Z,42.805,6.029,13.2971,4.59985,2470.1,2019-10-31T10:56:39Z
2019-10-31T08:59:15Z,42.805,6.029,13.2968,4.59985,2470.11,2019-10-31T10:59:42Z
2019-10-31T09:02:19Z,42.805,6.029,13.2966,4.59986,2470.11,2019-10-31T11:02:45Z
2019-10-31T09:05:22Z,42.805,6.029,13.2973,4.59985,2470.073,2019-10-31T11:05:48Z
2019-10-31T09:08:25Z,42.805,6.029,13.2971,4.59981,2470.087,2019-10-31T11:08:52Z
2019-10-31T09:11:28Z,42.805,6.029,13.2967,4.59973,2470.124,2019-10-31T11:11:55Z
2019-10-31T09:14:31Z,42.805,6.029,13.2964,4.59976,2470.1,2019-10-31T11:14:58Z
2019-10-31T09:17:35Z,42.805,6.029,13.2967,4.59978,2470.1,2019-10-31T11:18:01Z
2019-10-31T09:20:38Z,42.805,6.029,13.2967,4.59983,2470.087,2019-10-31T11:21:04Z
2019-10-31T09:23:41Z,42.805,6.029,13.2968,4.59985,2470.1,2019-10-31T11:24:08Z
2019-10-31T09:26:44Z,42.805,6.029,13.2968,4.59981,2470.077,2019-10-31T11:27:11Z
2019-10-31T09:29:48Z,42.805,6.029,13.2968,4.59991,2470.124,2019-10-31T11:30:14Z
2019-10-31T09:32:51Z,42.805,6.029,13.2966,4.59987,2470.1,2019-10-31T11:33:17Z
2019-10-31T09:35:54Z,42.805,6.029,13.2967,4.59981,2470.077,2019-10-31T11:36:21Z
2019-10-31T09:38:57Z,42.805,6.029,13.2964,4.59998,2470.087,2019-10-31T11:39:24Z
2019-10-31T09:42:00Z,42.805,6.029,13.2973,4.59984,2470.077,2019-10-31T11:42:27Z
2019-10-31T09:45:04Z,42.805,6.029,13.2966,4.59979,2470.087,2019-10-31T11:45:30Z
2019-10-31T09:48:07Z,42.805,6.029,13.2968,4.59982,2470.087,2019-10-31T11:48:33Z
2019-10-31T09:51:10Z,42.805,6.029,13.2976,4.60001,2470.063,2019-10-31T11:51:37Z
2019-10-31T09:54:13Z,42.805,6.029,13.2969,4.59977,2470.087,2019-10-31T11:54:40Z
2019-10-31T09:57:17Z,42.805,6.029,13.2971,4.59973,2470.087,2019-10-31T11:57:43Z
2019-10-31T10:00:20Z,42.805,6.029,13.2964,4.59971,2470.1,2019-10-31T12:00:46Z
2019-10-31T10:03:23Z,42.805,6.029,13.2959,4.59973,2470.077,2019-10-31T12:03:50Z
2019-10-31T10:06:26Z,42.805,6.029,13.2972,4.59982,2470.124,2019-10-31T12:06:53Z
2019-10-31T10:09:29Z,42.805,6.029,13.2968,4.59981,2470.11,2019-10-31T12:09:56Z
2019-10-31T10:12:33Z,42.805,6.029,13.2966,4.59991,2470.087,2019-10-31T12:12:59Z
2019-10-31T10:15:36Z,42.805,6.029,13.2962,4.59982,2470.087,2019-10-31T12:16:02Z
2019-10-31T10:18:39Z,42.805,6.029,13.2968,4.59981,2470.087,2019-10-31T12:19:06Z
2019-10-31T10:21:42Z,42.805,6.029,13.2970,4.59984,2470.087,2019-10-31T12:22:09Z
2019-10-31T10:24:45Z,42.805,6.029,13.2965,4.59978,2470.077,2019-10-31T12:25:12Z
2019-10-31T10:27:49Z,42.805,6.029,13.2968,4.59977,2470.1,2019-10-31T12:28:15Z
2019-10-31T10:30:52Z,42.805,6.029,13.2967,4.59982,2470.063,2019-10-31T12:31:18Z
2019-10-31T10:33:55Z,42.805,6.029,13.2964,4.59982,2470.063,2019-10-31T12:34:22Z
2019-10-31T10:36:58Z,42.805,6.029,13.2974,4.59991,2470.063,2019-10-31T12:37:25Z
2019-10-31T10:40:01Z,42.805,6.029,13.2963,4.59984,2470.077,2019-10-31T12:40:28Z
2019-10-31T10:43:05Z,42.805,6.029,13.2967,4.59983,2470.087,2019-10-31T12:43:31Z
2019-10-31T10:46:08Z,42.805,6.029,13.2967,4.59973,2470.063,2019-10-31T12:46:34Z
2019-10-31T10:49:11Z,42.805,6.029,13.2974,4.59994,2470.04,2019-10-31T12:49:38Z
2019-10-31T10:52:14Z,42.805,6.029,13.2971,4.59977,2470.077,2019-10-31T12:52:41Z
2019-10-31T10:55:17Z,42.805,6.029,13.2972,4.59994,2470.04,2019-10-31T12:55:44Z
2019-10-31T10:58:21Z,42.805,6.029,13.2965,4.59978,2470.077,2019-10-31T12:58:47Z
2019-10-31T11:01:24Z,42.805,6.029,13.2968,4.59985,2470.063,2019-10-31T13:01:51Z
2019-10-31T11:04:27Z,42.805,6.029,13.2964,4.59971,2470.063,2019-10-31T13:04:54Z
2019-10-31T11:07:30Z,42.805,6.029,13.2964,4.59972,2470.04,2019-10-31T13:07:57Z
2019-10-31T11:10:34Z,42.805,6.029,13.2965,4.59968,2470.077,2019-10-31T13:11:00Z
2019-10-31T11:13:37Z,42.805,6.029,13.2963,4.59979,2470.04,2019-10-31T13:14:03Z
2019-10-31T11:16:40Z,42.805,6.029,13.2967,4.59981,2470.063,2019-10-31T13:17:06Z
2019-10-31T11:19:43Z,42.805,6.029,13.2959,4.59978,2470.077,2019-10-31T13:20:10Z
2019-10-31T11:22:46Z,42.805,6.029,13.2965,4.59976,2470.077,2019-10-31T13:23:13Z
2019-10-31T11:25:49Z,42.805,6.029,13.2963,4.59976,2470.04,2019-10-31T13:26:16Z
2019-10-31T11:28:53Z,42.805,6.029,13.2963,4.59976,2470.04,2019-10-31T13:29:19Z
2019-10-31T11:31:56Z,42.805,6.029,13.2968,4.59971,2470.017,2019-10-31T13:32:23Z
2019-10-31T11:34:59Z,42.805,6.029,13.2968,4.59979,2470.04,2019-10-31T13:35:26Z
2019-10-31T11:38:02Z,42.805,6.029,13.2965,4.59986,2470.04,2019-10-31T13:38:29Z
2019-10-31T11:41:06Z,42.805,6.029,13.2960,4.59976,2470.03,2019-10-31T13:41:32Z
2019-10-31T11:44:09Z,42.805,6.029,13.2965,4.59987,2470.077,2019-10-31T13:44:35Z
2019-10-31T11:47:12Z,42.805,6.029,13.2972,4.59984,2470.03,2019-10-31T13:47:38Z
2019-10-31T11:50:15Z,42.805,6.029,13.2965,4.59986,2470.03,2019-10-31T13:50:42Z
2019-10-31T11:53:18Z,42.805,6.029,13.2968,4.59982,2469.993,2019-10-31T13:53:45Z
2019-10-31T11:56:22Z,42.805,6.029,13.2968,4.59988,2470.017,2019-10-31T13:56:48Z
2019-10-31T11:59:25Z,42.805,6.029,13.2964,4.59979,2470.017,2019-10-31T13:59:51Z
2019-10-31T12:02:28Z,42.805,6.029,13.2965,4.59979,2470.04,2019-10-31T14:02:55Z
2019-10-31T12:05:31Z,42.805,6.029,13.2962,4.59971,2470.03,2019-10-31T14:05:58Z
2019-10-31T12:08:35Z,42.805,6.029,13.2962,4.60001,2470.053,2019-10-31T14:09:01Z
2019-10-31T12:11:38Z,42.805,6.029,13.2963,4.59979,2470.017,2019-10-31T14:12:05Z
2019-10-31T12:14:41Z,42.805,6.029,13.2961,4.59973,2470.03,2019-10-31T14:15:08Z
2019-10-31T12:17:44Z,42.805,6.029,13.2961,4.59974,2470.007,2019-10-31T14:18:11Z
2019-10-31T12:20:48Z,42.805,6.029,13.2964,4.59977,2470.03,2019-10-31T14:21:14Z
2019-10-31T12:23:51Z,42.805,6.029,13.2959,4.59970,2469.993,2019-10-31T14:24:17Z
2019-10-31T12:26:54Z,42.805,6.029,13.2966,4.59982,2470.007,2019-10-31T14:27:21Z
2019-10-31T12:29:57Z,42.805,6.029,13.2967,4.59980,2469.984,2019-10-31T14:30:24Z
2019-10-31T12:33:00Z,42.805,6.029,13.2968,4.59983,2470.007,2019-10-31T14:33:27Z
2019-10-31T12:36:03Z,42.805,6.029,13.2964,4.59971,2469.984,2019-10-31T14:36:30Z
2019-10-31T12:39:07Z,42.805,6.029,13.2966,4.59973,2470.007,2019-10-31T14:39:33Z
2019-10-31T12:42:10Z,42.805,6.029,13.2965,4.59976,2469.97,2019-10-31T14:42:37Z
2019-10-31T12:45:13Z,42.805,6.029,13.2967,4.59976,2470.007,2019-10-31T14:45:40Z
2019-10-31T12:48:16Z,42.805,6.029,13.2959,4.59971,2470.007,2019-10-31T14:48:43Z
2019-10-31T12:51:20Z,42.805,6.029,13.2961,4.59967,2470.017,2019-10-31T14:51:46Z
2019-10-31T12:54:23Z,42.805,6.029,13.2964,4.59970,2469.97,2019-10-31T14:54:49Z
2019-10-31T12:57:26Z,42.805,6.029,13.2968,4.59972,2469.984,2019-10-31T14:57:53Z
2019-10-31T13:00:29Z,42.805,6.029,13.2961,4.59968,2470.03,2019-10-31T15:00:56Z
2019-10-31T13:03:32Z,42.805,6.029,13.2963,4.59972,2469.947,2019-10-31T15:03:59Z
2019-10-31T13:06:36Z,42.805,6.029,13.2965,4.59978,2469.993,2019-10-31T15:07:02Z
2019-10-31T13:09:39Z,42.805,6.029,13.2967,4.59977,2469.993,2019-10-31T15:10:05Z
2019-10-31T13:12:42Z,42.805,6.029,13.2967,4.60009,2469.96,2019-10-31T15:13:09Z
2019-10-31T13:15:45Z,42.805,6.029,13.2963,4.59984,2469.993,2019-10-31T15:16:12Z
2019-10-31T13:18:48Z,42.805,6.029,13.2960,4.59973,2469.984,2019-10-31T15:19:15Z
2019-10-31T13:21:51Z,42.805,6.029,13.2962,4.59974,2469.96,2019-10-31T15:22:18Z
2019-10-31T13:24:55Z,42.805,6.029,13.2963,4.59976,2469.97,2019-10-31T15:25:21Z
2019-10-31T13:27:58Z,42.805,6.029,13.2966,4.59973,2469.97,2019-10-31T15:28:25Z
2019-10-31T13:31:01Z,42.805,6.029,13.2967,4.59974,2469.937,2019-10-31T15:31:28Z
2019-10-31T13:34:04Z,42.805,6.029,13.2962,4.59981,2469.947,2019-10-31T15:34:31Z
2019-10-31T13:37:08Z,42.805,6.029,13.2966,4.59977,2469.96,2019-10-31T15:37:34Z
2019-10-31T13:40:11Z,42.805,6.029,13.2965,4.59989,2469.923,2019-10-31T15:40:37Z
2019-10-31T13:43:14Z,42.805,6.029,13.2964,4.59969,2469.97,2019-10-31T15:43:40Z
2019-10-31T13:46:17Z,42.805,6.029,13.2964,4.59968,2469.984,2019-10-31T15:46:44Z
2019-10-31T13:49:20Z,42.805,6.029,13.2966,4.59973,2469.947,2019-10-31T15:49:47Z
2019-10-31T13:52:23Z,42.805,6.029,13.2965,4.59969,2469.96,2019-10-31T15:52:50Z
2019-10-31T13:55:27Z,42.805,6.029,13.2967,4.59971,2469.947,2019-10-31T15:55:53Z
2019-10-31T13:58:30Z,42.805,6.029,13.2961,4.59973,2469.947,2019-10-31T15:58:57Z
2019-10-31T14:01:33Z,42.805,6.029,13.2965,4.59969,2469.947,2019-10-31T16:02:00Z
2019-10-31T14:04:36Z,42.805,6.029,13.2963,4.59968,2469.947,2019-10-31T16:05:03Z
2019-10-31T14:07:40Z,42.805,6.029,13.2963,4.59984,2469.947,2019-10-31T16:08:06Z
2019-10-31T14:10:43Z,42.805,6.029,13.2965,4.59975,2469.937,2019-10-31T16:11:09Z
2019-10-31T14:13:46Z,42.805,6.029,13.2968,4.59969,2469.96,2019-10-31T16:14:13Z
2019-10-31T14:16:49Z,42.805,6.029,13.2971,4.59999,2469.923,2019-10-31T16:17:16Z
2019-10-31T14:19:52Z,42.805,6.029,13.2979,4.59978,2469.923,2019-10-31T16:20:19Z
2019-10-31T14:22:56Z,42.805,6.029,13.2964,4.59971,2469.923,2019-10-31T16:23:22Z
2019-10-31T14:25:59Z,42.805,6.029,13.2964,4.59968,2469.96,2019-10-31T16:26:25Z
2019-10-31T14:29:02Z,42.805,6.029,13.2970,4.59974,2469.96,2019-10-31T16:29:29Z
2019-10-31T14:32:05Z,42.805,6.029,13.2969,4.59993,2469.937,2019-10-31T16:32:32Z
2019-10-31T14:35:08Z,42.805,6.029,13.2971,4.60003,2469.947,2019-10-31T16:35:35Z
2019-10-31T14:38:12Z,42.805,6.029,13.2972,4.60002,2469.89,2019-10-31T16:38:38Z
2019-10-31T14:41:15Z,42.805,6.029,13.2969,4.59994,2469.876,2019-10-31T16:41:41Z
2019-10-31T14:44:18Z,42.805,6.029,13.2964,4.59983,2469.937,2019-10-31T16:44:45Z
2019-10-31T14:47:21Z,42.805,6.029,13.2967,4.59970,2469.914,2019-10-31T16:47:48Z
2019-10-31T14:50:25Z,42.805,6.029,13.2970,4.59971,2469.923,2019-10-31T16:50:51Z
2019-10-31T14:53:28Z,42.805,6.029,13.2965,4.59972,2469.923,2019-10-31T16:53:54Z
2019-10-31T14:56:31Z,42.805,6.029,13.2966,4.59971,2469.876,2019-10-31T16:56:57Z
2019-10-31T14:59:34Z,42.805,6.029,13.2967,4.59972,2469.923,2019-10-31T17:00:01Z
2019-10-31T15:02:37Z,42.805,6.029,13.2967,4.59976,2469.9,2019-10-31T17:03:04Z